Caldwell, NJ

6:43 PM EST on December 07, 2019 (GMT -0500)
Essex County

Weather History for KCDW - June, 2019

Change the Weather History Date:

Friday, June 14, 2019

  Actual Average Record
Temperature  
Mean Temperature 68 °F -  
Max Temperature 78 °F 78 °F 97 °F (1961)
Min Temperature 59 °F 55 °F 42 °F (1978)
Cooling Degree Days 4    
Growing Degree Days 18 (Base 50)    
Moisture  
Dew Point 52 °F    
Average Humidity 64    
Maximum Humidity 96    
Minimum Humidity 27    
Precipitation  
Precipitation 0.01 in - - ()
Sea Level Pressure  
Sea Level Pressure 29.89 in    
Wind  
Wind Speed 5 mph (WNW)    
Max Wind Speed 14 mph    
Max Gust Speed 26 mph    
Visibility 9 miles    
Events      
Averages and records for this station are not official NWS values.
T = Trace of Precipitation, MM = Missing Value Source: NWS Daily Summary

Daily Weather History Graph

Daily Weather History Graph

Search for Another Location

Airport or City:

Astronomy

Jun. 14, 2019 Rise Set
Actual Time 5:24 AM EDT 8:30 PM EDT
Civil Twilight 4:51 AM EDT 9:03 PM EDT
Nautical Twilight 4:08 AM EDT 9:46 PM EDT
Astronomical Twilight 3:18 AM EDT 10:36 PM EDT
Moon 5:47 PM EDT (6/14) 3:42 AM EDT (6/14)
Length of Visible Light 16h 12m
Length of Day
15h 05m
Waxing Gibbous, 92% of the Moon is Illuminated
Jun 14
Waxing Gibbous
Jun 17
Full
Jun 25
Last Quarter
Jul 2
New
Jul 9
First Quarter

Hourly Weather History & Observations

Time (EDT) Temp. Dew Point Humidity Pressure Visibility Wind Dir Wind Speed Gust Speed Precip Events Conditions
12:53 AM 63.0 °F 61.0 °F 93% 29.81 in 8.0 mi SW 4.6 mph - 0.01 in   Overcast
1:35 AM 63.0 °F 61.0 °F 93% 29.79 in 6.0 mi Calm Calm - N/A   Overcast
1:53 AM 62.1 °F 61.0 °F 96% 29.81 in 6.0 mi Calm Calm - N/A   Overcast
2:33 AM 62.1 °F 60.1 °F 93% 29.79 in 7.0 mi Variable 3.5 mph - N/A   Scattered Clouds
2:53 AM 62.1 °F 60.1 °F 93% 29.79 in 7.0 mi Calm Calm - N/A   Clear
3:53 AM 61.0 °F 59.0 °F 93% 29.81 in 7.0 mi SW 3.5 mph - N/A   Clear
4:53 AM 60.1 °F 59.0 °F 96% 29.82 in 7.0 mi Calm Calm - N/A   Clear
5:53 AM 59.0 °F 57.9 °F 96% 29.83 in 9.0 mi Variable 4.6 mph - N/A   Clear
6:53 AM 59.0 °F 57.0 °F 93% 29.85 in 10.0 mi Variable 4.6 mph - N/A   Clear
7:53 AM 61.0 °F 54.0 °F 78% 29.87 in 10.0 mi Variable 4.6 mph - N/A   Clear
8:53 AM 64.0 °F 52.0 °F 65% 29.87 in 10.0 mi West 9.2 mph 26.5 mph N/A   Scattered Clouds
9:53 AM 66.0 °F 51.1 °F 59% 29.88 in 10.0 mi West 11.5 mph 17.3 mph N/A   Mostly Cloudy
10:53 AM 66.9 °F 50.0 °F 54% 29.89 in 10.0 mi West 12.7 mph 23.0 mph N/A   Mostly Cloudy
11:53 AM 66.9 °F 50.0 °F 54% 29.91 in 10.0 mi NW 13.8 mph 25.3 mph N/A   Overcast
12:53 PM 69.1 °F 48.0 °F 47% 29.92 in 10.0 mi WNW 12.7 mph - N/A   Overcast
1:53 PM 70.0 °F 48.0 °F 46% 29.93 in 10.0 mi WNW 11.5 mph 20.7 mph N/A   Overcast
2:53 PM 72.0 °F 46.9 °F 41% 29.94 in 10.0 mi West 10.4 mph 17.3 mph N/A   Overcast
3:53 PM 73.0 °F 45.0 °F 37% 29.93 in 10.0 mi West 8.1 mph 17.3 mph N/A   Clear
4:53 PM 75.9 °F 43.0 °F 31% 29.93 in 10.0 mi NW 12.7 mph 19.6 mph N/A   Scattered Clouds
5:53 PM 78.1 °F 41.0 °F 27% 29.95 in 10.0 mi NW 13.8 mph 19.6 mph N/A   Scattered Clouds
6:53 PM 75.9 °F 41.0 °F 29% 29.98 in 10.0 mi WNW 12.7 mph 21.9 mph N/A   Partly Cloudy
7:53 PM 75.0 °F 41.0 °F 29% 29.99 in 10.0 mi NW 11.5 mph - N/A   Clear
8:53 PM 69.1 °F 45.0 °F 42% 30.01 in 10.0 mi Calm Calm - N/A   Clear
9:53 PM 66.0 °F 46.0 °F 48% 30.04 in 10.0 mi Calm Calm - N/A   Clear